Powrót do katalogu

STARLINK-34340

AktywnyŁącznośćSSO
NORAD 64163·PAYLOAD·🇺🇸 United States

Wystrzelony May 27, 2025 z Vandenberg Space Force Base

Loading…

Następne Przeloty (najbliższe 24 godziny)

TLE

ŚwieżeSource: CelesTrak SupGP

Epoka: Sep 15, 2026, 04:04 UTC

1 64163C 25112T   26258.16993056 -.00010898  00000+0 -33823-3 0  2580
2 64163  97.2824 305.3688 0000893  93.9561 306.0763 15.33450697    19

Śledź STARLINK-34340 w czasie rzeczywistym z AllMySat

Download on the App Store